Location: Bigaude
(50.6606°N, 3.7266°E)
Time: 05:15:28
(UTC+00:00)

Daily predictions for brighter satellites

Satellite Brightness Start Highest point End
(mag) Time Altitude Azimuth Time Altitude Azimuth Time Altitude Azimuth
ATLAS 3B R/B 4.1 03:13:36 35° NNE 03:13:36 35° NNE 03:20:07 10° E
Cosmos 2082 Rocket 4.4 03:40:37 17° NNE 03:40:37 17° NNE 03:41:51 10° NNE
ATLAS 2AS CENTAUR R/B 4.5 03:51:35 10° SSE 03:57:16 27° ESE 04:02:50 10° ENE
SeaSat 1 4.3 03:53:32 10° NE 03:55:36 25° NE 03:55:36 25° NE
NOSS 3-1 (A) 4.1 04:09:37 64° SSW 04:09:37 64° SSW 04:17:29 10° SSE
Meteor 2-2 Rocket 4.4 04:16:46 70° E 04:16:46 70° E 04:22:24 10° SSE
Cosmos 2360 Rocket 2.9 04:20:38 46° SSE 04:20:38 46° SSE 04:24:27 10° SSE
USA 234 3.2 04:16:41 10° ENE 04:23:10 65° NNW 04:23:15 65° NNW
Cosmos 2026 Rocket 4.0 04:18:14 10° S 04:24:17 76° E 04:30:26 10° NNE
Cosmos 2221 4.4 04:26:41 22° NE 04:28:03 26° ENE 04:31:33 10° SE
Cosmos 2219 Rocket 2.2 04:31:58 76° NNE 04:32:13 78° ENE 04:37:52 10° SE
Meteor 2-20 4.5 04:33:40 63° SSW 04:33:40 63° SSW 04:38:46 10° S
Cosmos 2237 Rocket 4.2 04:31:45 16° N 04:34:28 21° NE 04:38:43 10° E
USA 229 4.3 04:34:14 38° NNW 04:37:02 58° NE 04:44:55 10° ESE
USA 229 DEB 4.3 04:34:19 38° NNW 04:37:07 58° NE 04:45:00 10° ESE
Cosmos 2285 Rocket 3.9 04:36:36 60° NNW 04:37:56 88° WSW 04:44:22 10° SSE
FengYun 1-2 T 4.3 04:33:27 10° NNE 04:39:09 77° ESE 04:44:48 10° S
Cosmos 158 Rocket 4.4 04:36:22 25° S 04:39:20 61° ESE 04:44:27 10° NNE
Helios 1A Rocket 4.5 04:39:04 10° SE 04:41:03 27° ESE 04:41:03 27° ESE
Cosmos 2333 Rocket 3.6 04:46:06 24° SSW 04:46:06 24° SSW 04:48:32 10° S
Cosmos 1814 Rocket 4.0 04:44:51 49° S 04:46:18 81° ESE 04:51:39 10° NNE
Cosmos 2322 Rocket 2.9 04:48:07 38° SSW 04:48:07 38° SSW 04:51:52 10° S
Meteor 2-20 Rocket 4.1 04:51:49 52° NNW 04:53:11 75° W 04:58:53 10° S
Cosmos 1553 Rocket 4.0 04:49:45 10° N 04:56:13 84° E 05:02:38 10° S
BREEZE M DEB (TANK) 4.0 04:58:45 19° SE 04:58:49 19° SE 05:01:18 10° E
BREEZE-M DEB (TANK) 3.5 04:59:25 32° S 04:59:25 32° S 05:03:44 10° ESE
Cosmos 1092 Rocket 3.8 04:53:49 10° SSW 05:00:03 71° WNW 05:06:16 10° N
Cosmos 1743 4.1 04:57:57 10° SSE 05:03:54 12° NNE 05:04:08 10° NNE
COSMO-SKYMED 1 2.5 04:57:28 10° SSE 05:01:35 77° ENE 05:01:59 69° NNE
ATLAS 3B R/B 3.1 05:00:51 29° NW 05:05:14 70° NE 05:12:46 10° SE
Cosmos 2322 4.1 05:03:06 27° NNW 05:06:09 62° ENE 05:11:45 10° SE
Cosmos 1707 3.7 05:06:53 33° NE 05:07:17 35° ENE 05:10:11 10° SE
Cosmos 1437 Rocket 3.2 05:07:21 45° NE 05:07:52 49° ENE 05:11:16 10° SSE
CZ-2C R/B 4.5 05:03:36 10° N 05:04:33 15° N 05:04:33 15° N
SL-24 R/B 4.2 05:03:10 10° NNE 05:08:14 86° ESE 05:12:36 10° SSW
IRIDIUM 104 4.4 05:06:43 10° S 05:11:55 76° E 05:17:10 10° N
SKYMED 2 3.8 05:08:13 10° S 05:11:47 50° SW 05:11:47 50° SW
KORONAS-FOTON 4.4 05:13:32 32° NNE 05:14:38 46° ENE 05:17:53 10° SSE
Cosmos 1174 4.3 05:14:53 41° NW 05:16:49 88° WSW 05:21:28 10° SE
IRIDIUM 114 4.3 05:15:50 10° S 05:21:04 89° E 05:26:20 10° N
Cosmos 2082 Rocket 3.8 05:22:27 18° NNW 05:22:27 18° NNW 05:25:20 10° N
ATLAS 5 CENTAUR R/B 3.5 05:23:28 13° N 05:23:44 13° N 05:25:33 10° NE
Cosmos 2266 Rocket 4.5 05:18:38 10° S 05:24:52 62° E 05:31:03 10° NNE
Cosmos 1758 Rocket 3.4 05:22:18 10° SSW 05:26:42 74° WNW 05:31:04 10° N
Meteor 2-6 Rocket 4.3 05:23:00 16° NNW 05:27:47 61° W 05:33:33 10° S
ISS -1.6 05:26:43 13° SSW 05:29:00 25° SE 05:31:48 10° E
IRIDIUM 103 4.2 05:25:01 10° S 05:30:14 78° W 05:35:30 10° N
Meteor 1-19 Rocket 4.3 05:25:08 10° NNW 05:31:02 87° ENE 05:37:02 10° SSE
COSMOS 2406 4.3 05:33:27 24° NW 05:33:27 24° NW 05:37:47 10° NNE
COSMOS 2428 2.7 05:30:04 21° NNW 05:34:01 84° ENE 05:39:45 10° SSE
Cosmos 1417 Rocket 4.4 05:28:35 10° N 05:34:46 90° WSW 05:40:58 10° S
Meteor 1-10 Rocket 4.3 05:29:30 10° NNW 05:35:29 87° ENE 05:41:26 10° SSE
SeaSat 1 3.4 05:31:20 10° NNE 05:35:14 28° NW 05:35:14 28° NW
Cosmos 2151 2.8 05:35:14 10° S 05:39:20 87° W 05:43:29 10° N
BREEZE-M DEB (TANK) 3.6 05:42:08 20° S 05:42:08 20° S 05:43:30 10° SE
Cosmos 1125 Rocket 3.7 05:39:44 28° NW 05:42:11 51° WSW 05:47:12 10° S
Cosmos 1626 Rocket 3.9 05:42:31 10° SW 05:46:41 41° WNW 05:50:51 10° N
ATLAS 2AS CENTAUR R/B 2.7 05:40:27 10° SW 05:47:31 84° NW 05:54:24 10° NE
IRIDIUM 106 4.4 05:43:29 10° SSW 05:48:36 56° W 05:53:45 10° N
USA 290 4.0 05:48:58 10° S 05:51:55 35° ESE 05:54:55 10° NE
Cosmos 2208 Rocket 4.3 05:54:35 10° SSW 05:59:45 69° ESE 06:04:55 10° NNE
SL-16 R/B 3.9 05:56:10 10° NNW 06:00:54 26° NE 06:05:37 10° E
NOAA 12 4.5 05:56:51 10° N 06:01:44 39° WNW 06:06:35 10° SW
Cosmos 2360 Rocket 3.7 06:02:26 16° WSW 06:02:26 16° WSW 06:05:11 10° SW
Cosmos 2297 Rocket 3.7 05:57:12 10° S 06:02:24 39° ESE 06:07:39 10° NE
Cosmos 2298 Rocket 4.0 05:58:39 11° NNW 06:03:45 87° WSW 06:09:02 10° SSE
IRS-1D 4.1 06:00:20 10° N 06:04:51 34° WNW 06:09:25 10° SW
Cosmos 2221 3.0 06:03:04 21° NW 06:05:10 34° W 06:08:55 10° SSW
USA 234 3.6 05:59:25 10° ENE 06:05:44 52° N 06:10:35 18° WNW
NOSS 0 Rocket 3.9 06:00:25 13° NNW 06:06:00 79° WSW 06:12:14 10° SSE
Cosmos 1980 3.9 06:01:55 11° NNW 06:07:30 73° ENE 06:13:10 10° SE
IGS 5A 3.3 06:04:04 10° N 06:08:04 67° WNW 06:12:01 10° SSW
Cosmos 1842 Rocket 4.1 06:05:41 10° N 06:09:57 59° ENE 06:14:14 10° SSE
USA 81 4.4 06:05:25 10° S 06:10:37 68° E 06:15:52 10° N
Meteor 1-20 Rocket 4.1 06:06:14 10° SSW 06:11:48 70° WNW 06:17:19 10° N
Helios 1A Rocket 4.0 06:12:26 10° SW 06:14:35 18° W 06:14:35 18° W
Cosmos 2219 Rocket 3.5 06:13:42 18° WNW 06:15:31 20° W 06:19:32 10° SSW
Cosmos 1484 Rocket 2.8 06:15:05 10° N 06:18:17 39° WNW 06:21:26 10° SW
Cosmos 2237 Rocket 2.3 06:13:44 10° NNW 06:19:24 81° ENE 06:25:03 10° SSE
Cosmos 1812 Rocket 4.5 06:16:53 15° NW 06:19:41 27° W 06:23:21 10° SSW
Meteor 2-4 Rocket 3.7 06:14:17 10° NNW 06:19:46 87° E 06:25:22 10° SSE
SMAP 3.1 06:19:33 10° NNE 06:24:15 90° NNW 06:28:54 10° SSW
Meteor 1-27 Rocket 3.8 06:18:40 10° NNW 06:24:24 62° W 06:29:59 10° S
Cosmos 1842 3.6 06:22:39 14° NW 06:24:59 32° W 06:27:58 10° SSW
ARIANE 5 R/B 3.1 06:20:07 10° NNE 06:25:20 65° ESE 06:30:31 10° S
Cosmos 1602 Rocket 4.3 06:23:01 10° SW 06:26:59 31° WNW 06:30:58 10° N
Landsat 7 3.9 06:22:49 10° NNE 06:27:31 82° ESE 06:32:10 10° SSW
USA 229 4.3 06:21:40 13° NW 06:28:06 51° WSW 06:35:54 10° SSE
USA 229 DEB 4.3 06:21:46 13° NW 06:28:11 51° WSW 06:35:59 10° SSE
Cosmos 44 3.2 06:25:52 10° SW 06:30:30 64° NW 06:35:29 10° NE
BREEZE-M DEB (TANK) 3.9 06:34:26 10° SW 06:36:41 42° SSE 06:40:14 10° E
COSMO-SKYMED 1 4.3 06:35:35 10° WSW 06:37:26 13° W 06:38:19 12° WNW
MOS 1 Rocket 3.7 06:32:57 10° NNE 06:38:21 85° ESE 06:43:33 10° SSW
ARIANE 6 FM1 Upper Stage 2.5 06:35:01 10° SW 06:39:02 82° NW 06:43:01 10° NE
Cosmos 2315 Rocket 4.3 06:33:25 10° NNW 06:39:30 49° W 06:45:29 10° SSW
Cosmos 1707 4.0 06:39:24 13° WNW 06:40:10 14° W 06:41:55 10° WSW
YAOGAN 11 4.3 06:38:03 10° SSE 06:42:19 72° ENE 06:46:35 10° N
Cosmos 1437 Rocket 4.3 06:41:25 12° WNW 06:42:20 13° W 06:44:01 10° WSW
ATLAS CENTAUR R/B 2.5 06:39:28 10° SSW 06:42:34 37° ESE 06:45:41 10° NE
NOSS 8 (H) 4.5 06:38:46 10° SW 06:42:45 61° NW 06:45:54 10° NE
Cosmos 1238 Rocket 3.4 06:40:54 12° NW 06:42:51 21° W 06:45:11 10° SW
Cosmos 773 Rocket 4.0 06:38:23 10° SW 06:43:25 57° WNW 06:48:32 10° NNE
CBERS-1 4.2 06:38:58 10° N 06:43:50 47° WNW 06:48:41 10° SW
BREEZE-M DEB (TANK) 3.8 06:31:16 10° W 06:45:44 76° SSW 06:49:34 10° ESE
Okean 1-7 Rocket 4.4 06:43:14 10° SW 06:47:08 29° WNW 06:51:02 10° N
Meteor 1-5 Rocket 4.0 06:42:23 10° SSW 06:47:42 69° WNW 06:53:00 10° N
Meteor 1-18 Rocket 4.3 06:43:03 10° NNW 06:48:44 90° E 06:54:27 10° S
SJ-12 3.7 06:45:50 10° N 06:49:38 67° WNW 06:53:25 10° SSW
Cosmos 1818 3.7 06:45:34 10° NW 06:50:58 64° SW 06:56:19 10° SSE
Cosmos 1076 Rocket 3.7 06:47:14 10° SSW 06:51:20 48° WNW 06:55:29 10° N
Cosmos 1953 Rocket 3.7 06:48:28 10° SSW 06:52:43 52° WNW 06:57:03 10° N
Cosmos 2227 Rocket 3.6 06:49:06 10° S 06:54:25 44° ESE 06:59:44 10° NE
CZ-2D R/B 3.0 06:51:37 10° N 06:54:40 44° WNW 06:57:42 10° SW
Cosmos 2344 3.5 06:47:12 10° SW 06:54:50 84° NW 07:02:12 10° NE
ATLAS 3B R/B 3.6 06:48:35 10° NW 06:55:39 39° WSW 07:02:23 10° S
SL-08 R/B 3.3 06:52:41 10° SSE 06:57:21 83° WSW 07:02:08 10° NNW
SPOT 1/Viking Rocket 4.0 06:52:58 10° NNE 06:58:09 70° ESE 07:03:16 10° S
CORIOLIS 4.3 06:53:39 10° N 06:58:53 53° WNW 07:04:08 10° SW
Cosmos 1825 Rocket 4.4 06:55:01 10° SW 06:58:53 29° WNW 07:02:47 10° N
Cosmos 1655 Rocket 4.2 06:53:55 10° SSW 07:00:05 54° WNW 07:06:16 10° N
IRS-1C 4.1 06:54:56 10° NNE 07:00:16 73° WNW 07:05:34 10° SSW
Cosmos 1271 Rocket 3.3 06:56:57 10° N 07:00:25 52° ENE 07:03:53 10° SSE
USA 276 4.4 07:00:06 10° SSW 07:02:02 19° SSE 07:03:51 10° ESE
ISS -3.6 07:02:05 10° WSW 07:05:27 82° SSE 07:08:51 10° ENE
